sat.trackr.live / text

‹ back to catalog

SPAWAR-CAL-O

NORAD 43766 · 2018-099J

PAYLOAD ACTIVE UNKNOWN

§ Identity

Operator
Country
US
Launch date
2018-12-03
Launch site
AFWTR
Launch vehicle
Mass (kg)
RCS (m²)

External: N2YO · Heavens-Above · Gunter

§ Orbital elements

Epoch: 2026-09-20T03:09:43.704576Z

Period
93.60 min
Inclination
97.4228°
Eccentricity
0.0006038
Mean motion
15.38381934 rev/d
Perigee alt
446.8 km
Apogee alt
455.0 km
Semi-major
6,829.0 km
B*
3.9466e-4
RAAN
328.0814°
Arg perigee
315.0210°
Mean anomaly
45.0546°
Rev number
42,810

§ Raw data

SPAWAR-CAL-O1 43766U 18099J   26263.13175584  .00014872  00000+0  39466-3 0  99982 43766  97.4228 328.0814 0006038 315.0210  45.0546 15.38381934428109

JSON: /api/v1/satellites/43766 · /tle

For live sub-satellite position, see the globe view (requires WebGL).

§ Visibility from observer

Set your observer location to see the next 7 days of passes ≥ 10°. The values pass through the URL so the page stays shareable.

No JS? Fill the form by hand. The geolocation button needs JavaScript.